ONEWEB-0058, 45161

Orbit data source: Space-Track

ONEWEB-0058, 45161 is a payload satellite owned by One Web (UK) in LEO that was launched on Thu, 06 Feb 2020 UTC via a SOYUZ-2-1B launch vehicle from the Tyuratam Missile And Space Complex (TTMTR). Payload-class satellites include a variety of spacecraft equipped with specific instruments for various scientific and technological missions. These include communications satellites like Starlink; space stations such as the ISS; scientific satellites like the Hubble; Earth observation satellites from companies like Planet Labs, Umbra, and HawkEye 360; GPS; miniature CubeSats for education and research; and military/defense satellites.

Loading next visibility...
Identifier
45161, 2020-008AG
Orbit
LEO
Last TLE update
15 hours ago
Origin
Manufacturer
One Web
Mission
Operational Commercial Communications
Bus & Motor
ARROW, Unknown motor
Mass
148 kg wet, ~140 kg dry
Launch date (UTC)
2020-02-06 (5 years ago)
Launch vehicle
SOYUZ-2-1B
Launch site
Tyuratam Missile And Space Complex (TTMTR)
Object type
Payload
Rocket body
Debris
Shape & HBR
Trap Box + 2 Pan, 5 m
Radar Cross Section
2.957 m², Large (>1 m²)

Expand to show TLE details & history

TLE from 15 hours ago
0 ONEWEB-0058
1 45161U 20008AG  25181.81344805 -.00000579  00000-0 -16963-2 0  9997
2 45161  87.8822 106.3617 0002088  81.6559 278.4805 13.10371290262405
Epoch: 2025-06-30T19:31Z
TLE epoch observation values (Epoch: 2025-06-30T19:31:21.911Z)
Latitude
-0.00003°
Longitude
-105.59746°
Altitude
1,224.377 km
Speed
7.242 km/s
True Right ascension
07h 05m 26s
True Declination
0° 00' 00"
Sunlit
Object was in daylight at epoch
Visualization orbit readout
Latitude
47.74951°
Longitude
-103.39969°
Altitude
1,227.85 km
Speed
7.246 km/s
Apparent Right ascension
08h 37m 07s
Apparent Declination
9° 20' 19"
Sunlit
Object is in daylight
Visualization observer readout
Local Sidereal Time
22:03:59
Azimuth
27.123° NE
Elevation
-36.798°
Doppler factor
1
Orbital elements
Apogee altitude
1,220.429 km
Perigee altitude
1,217.257 km
Semi-major axis
7,596.98 km
Eccentricity
0.00021
Inclination
87.8822°
RAAN
106.3617°
Arg. of periapsis
81.6559°
True anomaly
Unknown
Mean anomaly
278.4805°
Eccentric anomaly
Unknown
Mean motion
3.27779 °/min
Orbital period
109.83 mins
BSTAR
-0.0016963
Loading maneuver chart data...
Loading SW <> Apogee altitude chart data...
Loading historical data...
Loading historical data...
Loading historical data...
Loading historical data...
Loading historical data...
Loading historical data...
Loading historical data...

ONEWEB-0058 Visibility forecast

Observer location: undefined°, undefined°

Span
Click to sort rows by Start time (UTC) header in descending order
Start Az.
Max El. time (UTC)
Max El. Az.
Max El.
End time (UTC)
End Az.
7 mins2025-07-01 17:40:32.217Z101.314° ESE2025-07-01 17:44:32.217Z66.835° ENE14.813°2025-07-01 17:47:32.217Z41.654° NE
12 mins2025-07-01 19:27:32.217Z179.519° S2025-07-01 19:32:32.217Z189.032° SSW44.693°2025-07-01 19:39:32.217Z0.235° NNE
6 mins2025-07-01 21:21:32.217Z267.366° W2025-07-01 21:23:32.217Z284.785° WNW14.164°2025-07-01 21:27:32.217Z318.729° NNW
13 mins2025-07-02 06:57:32.217Z4.499° NNE2025-07-02 07:03:32.217Z111.834° ESE43.949°2025-07-02 07:10:32.217Z174.404° S
7 mins2025-07-02 08:49:32.217Z313.44° NW2025-07-02 08:52:32.217Z284.625° WNW17.895°2025-07-02 08:56:32.217Z249.371° W
|